sat.trackr.live / text

‹ back to catalog

STARLINK-6321

NORAD 57340 · 2023-099N

PAYLOAD ACTIVE UNKNOWN

§ Identity

Operator
Country
US
Launch date
2023-07-16
Launch site
AFETR
Launch vehicle
Mass (kg)
RCS (m²)

Purposes: comms

External: N2YO · Heavens-Above · Gunter

§ Orbital elements

Epoch: 2026-09-20T14:52:05.377152Z

Period
94.27 min
Inclination
43.0013°
Eccentricity
0.0000285
Mean motion
15.27575021 rev/d
Perigee alt
482.9 km
Apogee alt
483.3 km
Semi-major
6,861.2 km
B*
-8.6751e-6
RAAN
231.9404°
Arg perigee
87.0658°
Mean anomaly
273.0226°
Rev number
17,588

§ Raw data

STARLINK-63211 57340U 23099N   26263.61950668 -.00000500  00000+0 -86751-5 0  99902 57340  43.0013 231.9404 0000285  87.0658 273.0226 15.27575021175880

JSON: /api/v1/satellites/57340 · /tle

For live sub-satellite position, see the globe view (requires WebGL).

§ Visibility from observer

Set your observer location to see the next 7 days of passes ≥ 10°. The values pass through the URL so the page stays shareable.

No JS? Fill the form by hand. The geolocation button needs JavaScript.